Tracking 19854 objects as of 23-Sep-2019
HD Live streaming from Space Station
objects crossing your sky now

SL-12 R/B(2)

Track SL-12 R/B(2) now!


NORAD ID: 25900
Int'l Code: 1999-047E
Perigee: 35,395.1 km
Apogee: 36,271.9 km
Inclination: 14.0 °
Period: 1,438.1 minutes
Semi major axis: 42204 km
RCS: 1.9952 m2 (large)
Launch date: September 6, 1999
Source: Commonwealth of Independent States (former USSR) (CIS)
Launch site: TYURATAM MISSILE AND SPACE COMPLEX (TTMTR)

Note: This is a ROCKET BODY
aabbcc
Your satellite tracking list
Your tracking list is empty




NASA's NSSDC Master Catalog

Two Line Element Set (TLE):
1 25900U 99047E   19265.71924250 -.00000413 +00000-0 +00000-0 0  9997
2 25900 014.0071 018.6178 0103873 358.2852 000.3384 01.00130224073345
Source of the keplerian elements: AFSPC